Flag for China Weather past 2 weeks in Chongqing, Chongqing Municipality, China

Now
72 °F

Light rain. More clouds than sun.


Feels Like: 71 °F
Forecast: 71 / 73 °F
Wind: 8 mph from North

Location: Chongqing Airport

Current Time: Jul 3, 2015 at 7:14:40 PM

Latest Report: Jul 3, 2015 at 6:00 PM


Visibility: N/A

Pressure: 29.74 "Hg

Humidity: 83%

Dew point: 66 °F

Location of ChongqingLocation

Historic Weather in Chongqing — Graph

°F

Chongqing temperature yesterday

Maximum temperature yesterday: 81 °F (at 4:00 PM)
Minimum temperature yesterday: 75 °F (at 4:00 AM)
Average temperature yesterday: 77 °F

Past Weeks' High & Low Weather Summary

 TemperatureHumidityPressure
High99 °F (Jun 27, 3:00 PM)94% (Jun 20, 1:00 PM)29.80 "Hg (Jun 20, 1:00 PM)
Low70 °F (Jun 21, 3:00 AM)42% (Jun 27, 4:00 PM)29.33 "Hg (Jun 26, 4:00 PM)
Average81 °F74%29.59 "Hg
* Reported Jun 18 6:00 PM — Jul 3 6:00 PM, Chongqing, Weather by CustomWeather, © 2015

Note: Actual official high and low records may vary slightly from our data, if they occured in-between our weather recording intervals... More about our weather records

Advertising

Chongqing weather history for previous 24 hours

 ConditionsComfort  
Time TempWeatherWind HumidityBarometerVisibility
6:00 PM
Fri, Jul 3
72 °FLight rain. More clouds than sun.8 mph83%29.74 "HgN/A
5:00 PM70 °FLight rain. Scattered clouds.10 mph88%29.74 "HgN/A
4:00 PM70 °FLight rain. Scattered clouds.10 mph88%29.74 "Hg4 mi
3:00 PM73 °FLight rain. Scattered clouds.13 mph78%29.74 "HgN/A
2:00 PM73 °FLight rain. Scattered clouds.13 mph78%29.71 "HgN/A
1:00 PM75 °FLight rain. Scattered clouds.15 mph69%29.71 "HgN/A
12:00 PM75 °FScattered clouds.8 mph78%29.71 "HgN/A
11:00 AM75 °FScattered clouds.6 mph78%29.71 "HgN/A
10:00 AM75 °FSprinkles. More clouds than sun.8 mph83%29.71 "HgN/A
9:00 AM73 °FSprinkles. More clouds than sun.3 mph83%29.71 "HgN/A
8:00 AM73 °FSprinkles. Scattered clouds.8 mph83%29.68 "HgN/A
7:00 AM72 °FScattered clouds.8 mph88%29.68 "HgN/A
6:00 AM72 °FScattered clouds.3 mph88%29.65 "HgN/A
5:00 AM72 °FSprinkles. Passing clouds.8 mph88%29.65 "Hg5 mi
4:00 AM72 °FSprinkles. Passing clouds.8 mph94%29.65 "Hg5 mi
3:00 AM73 °FSprinkles. Fog.6 mph94%29.68 "Hg3 mi
2:00 AM73 °FSprinkles. Fog.6 mph89%29.68 "Hg3 mi
1:00 AM73 °FSprinkles. Fog.1 mph89%29.68 "Hg2 mi
12:00 AM73 °FSprinkles. Mostly cloudy.1 mph89%29.71 "Hg4 mi
11:00 PM
Thu, Jul 2
75 °FSprinkles. Mostly cloudy.1 mph83%29.68 "HgN/A
10:00 PM75 °FSprinkles. Mostly cloudy.6 mph83%29.68 "HgN/A
9:00 PM75 °FSprinkles. Passing clouds.6 mph89%29.65 "HgN/A
8:00 PM75 °FSprinkles. Passing clouds.3 mph89%29.65 "HgN/A
7:00 PM77 °FSprinkles. Scattered clouds.6 mph83%29.62 "HgN/A
Weather by CustomWeather, © 2015

See weather overviewHow to use our weather pages